THOR ABLESTAR DEB, 154

Orbit data source: Space-Track

THOR ABLESTAR DEB, 154 is space debris in LEO originally from a launch on Thu, 29 Jun 1961 UTC launched from the Air Force Eastern Test Range (AFETR). Debris objects in space refer to the collection of defunct objects orbiting the Earth. Examples of debris include non-operational satellites, rocket bodies, and fragments generated from explosions, collisions, or faulty payload assembly.

Loading next visibility...
Identifier
154, 1961-015AQ
Orbit
LEO
Country
Flag of USUS
Related business
Manufacturer
Unknown
Mission
Spacecraft
Bus & Motor
Unknown
Mass
Unknown
Launch date (UTC)
1961-06-29 (65 years ago)
Launch vehicle
Unknown
Launch site
Air Force Eastern Test Range (AFETR)
Object type
Payload
Rocket body
Debris
Shape & HBR
Unknown shape, 0.4 m
Radar Cross Section
Medium (>0.1 m² and <1 m²)

Expand to show TLE details & history
Last TLE update: 1 week ago

TLE from 1 week ago
0 THOR ABLESTAR DEB
1 00154U 61015AQ  26154.52477500  .00000134  00000-0  12669-3 0  9996
2 00154  66.6563 187.6477 0079738  18.6801 341.7181 14.06324646314719
Epoch: 2026-06-03T12:35Z
TLE epoch observation values (Epoch: 2026-06-03T12:35:40.560Z)
Latitude
-0.00007°
Longitude
106.74652°
Altitude
819.203 km
Speed
7.472 km/s
True Right ascension
12h 30m 35s
True Declination
0° 00' 00"
Sunlit
Object was in daylight at epoch
Visualization orbit readout
Latitude
Unknown
Longitude
Unknown
Altitude
Unknown
Speed
Unknown
Apparent Right ascension
Unknown
Apparent Declination
Unknown
Sunlit
N/A
Visualization observer readout
Local Sidereal Time
14:00:00
Azimuth
Unknown
Elevation
Unknown
Doppler factor
Unknown
Orbital elements
Apogee altitude
928.172 km
Perigee altitude
812.576 km
Semi-major axis
7,248.511 km
Eccentricity
0.00797
Inclination
66.6563°
RAAN
187.6477°
Arg. of periapsis
18.6801°
True anomaly
341.42873°
Mean anomaly
341.7181°
Eccentric anomaly
341.57369°
Mean motion
3.51698 °/min
Orbital period
102.36 mins
BSTAR
0.00012669
Loading maneuver chart data...
Computing Atmospheric mass density...
Loading historical data...
Loading historical data...
Loading historical data...
Loading historical data...
Loading historical data...
Loading historical data...
Loading historical data...

Documentation

Showing up to 5 results
|